TimeCST,TemperatureF,Dew PointF,Humidity,Sea Level PressureIn,VisibilityMPH,Wind Direction,Wind SpeedMPH,Gust SpeedMPH,PrecipitationIn,Events,Conditions,WindDirDegrees,DateUTC
12:53 AM,28.9,18.0,64,30.48,10.0,North,19.6,25.3,N/A,,Clear,10,2013-11-24 06:53:00
1:53 AM,27.0,18.0,69,30.51,10.0,NNE,19.6,26.5,N/A,,Clear,20,2013-11-24 07:53:00
2:53 AM,26.1,16.0,66,30.51,10.0,North,16.1,23.0,N/A,,Clear,10,2013-11-24 08:53:00
3:53 AM,25.0,16.0,69,30.52,10.0,North,15.0,-,N/A,,Clear,10,2013-11-24 09:53:00
4:53 AM,24.1,15.1,69,30.52,10.0,North,16.1,-,N/A,,Clear,10,2013-11-24 10:53:00
5:53 AM,24.1,14.0,65,30.56,10.0,NNE,15.0,23.0,N/A,,Clear,20,2013-11-24 11:53:00
6:53 AM,23.0,12.9,65,30.59,10.0,NNE,16.1,-,N/A,,Clear,20,2013-11-24 12:53:00
7:53 AM,26.1,12.9,58,30.62,10.0,NNE,16.1,-,N/A,,Clear,20,2013-11-24 13:53:00
8:53 AM,28.0,12.0,51,30.61,10.0,NNE,15.0,23.0,N/A,,Clear,20,2013-11-24 14:53:00
9:53 AM,30.9,12.9,47,30.60,10.0,NE,11.5,21.9,N/A,,Clear,40,2013-11-24 15:53:00
10:53 AM,34.0,14.0,44,30.58,10.0,NE,12.7,18.4,N/A,,Clear,50,2013-11-24 16:53:00
11:53 AM,36.0,12.9,39,30.54,10.0,NE,12.7,20.7,N/A,,Clear,40,2013-11-24 17:53:00
12:53 PM,37.9,12.0,35,30.50,10.0,North,13.8,19.6,N/A,,Clear,10,2013-11-24 18:53:00
1:53 PM,39.0,10.9,32,30.49,10.0,NNE,13.8,18.4,N/A,,Clear,30,2013-11-24 19:53:00
2:53 PM,39.0,10.9,32,30.49,10.0,NNE,9.2,-,N/A,,Clear,30,2013-11-24 20:53:00
3:53 PM,37.9,12.0,35,30.49,10.0,North,12.7,-,N/A,,Clear,10,2013-11-24 21:53:00
4:53 PM,34.0,15.1,46,30.49,10.0,North,6.9,-,N/A,,Clear,10,2013-11-24 22:53:00
5:53 PM,32.0,14.0,48,30.49,10.0,NNE,9.2,-,N/A,,Clear,20,2013-11-24 23:53:00
6:53 PM,30.0,14.0,51,30.49,10.0,NNE,8.1,-,N/A,,Clear,20,2013-11-25 00:53:00
7:53 PM,30.0,12.9,49,30.49,10.0,NNE,5.8,-,N/A,,Clear,20,2013-11-25 01:53:00
8:53 PM,28.9,12.0,49,30.49,10.0,NE,3.5,-,N/A,,Clear,50,2013-11-25 02:53:00
9:53 PM,28.9,12.9,51,30.48,10.0,NNE,5.8,-,N/A,,Clear,30,2013-11-25 03:53:00
10:53 PM,28.0,12.9,53,30.46,10.0,NE,5.8,-,N/A,,Clear,40,2013-11-25 04:53:00
11:53 PM,28.9,12.9,51,30.45,10.0,NE,4.6,-,N/A,,Clear,50,2013-11-25 05:53:00